When you browse on this site, cookies collect data to enhance your experience and personalize the content and advertising you see.
Visit our Privacy Policy to learn more. By continuing to use the site, you agree to this use of cookies and data.
  • In Belgium
  • List of Countries
  • For 7 days
  • Water Temperature
  • Satellite Maps
  • Weather Map
  • Weather Widgets
  • user-avatar
    Login

    Hourly Weather Heidelberg

    Today, 24 July, Wednesday

    Time Temperature Precipitation Wind Pressure Humidity
    00:00 +24°C° 0 mm 2 mps 735 mmHg 68%
    01:00 +24°C° 0 mm 2 mps 734 mmHg 69%
    02:00 +23°C° 0 mm 2 mps 734 mmHg 70%
    03:00 +23°C° 0 mm 1 mps 734 mmHg 72%
    04:00 +22°C° 0 mm 1 mps 734 mmHg 74%
    05:00 +23°C° 0 mm 1 mps 734 mmHg 72%
    06:00 +24°C° 0 mm 2 mps 734 mmHg 70%
    07:00 +24°C° 0 mm 2 mps 734 mmHg 67%
    08:00 +26°C° 0 mm 2 mps 734 mmHg 61%
    09:00 +28°C° 0 mm 2 mps 734 mmHg 55%
    10:00 +30°C° 0 mm 2 mps 734 mmHg 49%
    11:00 +32°C° 0 mm 2 mps 734 mmHg 45%
    12:00 +34°C° 0 mm 2 mps 734 mmHg 40%
    13:00 +35°C° 0 mm 1 mps 734 mmHg 35%
    14:00 +35°C° 0 mm 1 mps 734 mmHg 34%
    15:00 +36°C° 0 mm 1 mps 734 mmHg 32%
    16:00 +36°C° 0 mm 1 mps 733 mmHg 31%
    17:00 +34°C° 0 mm 1 mps 733 mmHg 39%
    18:00 +34°C° 0 mm 2 mps 733 mmHg 46%
    19:00 +31°C° 0 mm 2 mps 733 mmHg 54%
    20:00 +30°C° 0 mm 2 mps 733 mmHg 58%
    21:00 +28°C° 0 mm 2 mps 733 mmHg 63%
    22:00 +27°C° 0 mm 1 mps 734 mmHg 67%
    23:00 +26°C° 0 mm 1 mps 734 mmHg 68%

    Tomorrow, 25 July, Thursday

    Time Temperature Precipitation Wind Pressure Humidity
    00:00 +26°C° 0 mm 1 mps 734 mmHg 69%
    01:00 +25°C° 0 mm 1 mps 733 mmHg 70%
    02:00 +25°C° 0 mm 1 mps 734 mmHg 71%
    03:00 +24°C° 0 mm 1 mps 734 mmHg 73%
    04:00 +24°C° 0 mm 1 mps 734 mmHg 74%
    05:00 +24°C° 0 mm 1 mps 734 mmHg 72%
    06:00 +25°C° 0 mm 1 mps 734 mmHg 69%
    07:00 +26°C° 0 mm 1 mps 734 mmHg 67%
    08:00 +28°C° 0 mm 1 mps 734 mmHg 60%
    09:00 +30°C° 0 mm 2 mps 734 mmHg 54%
    10:00 +32°C° 0 mm 2 mps 735 mmHg 47%
    11:00 +34°C° 0 mm 2 mps 734 mmHg 43%
    12:00 +35°C° 0 mm 3 mps 734 mmHg 38%
    13:00 +36°C° 0 mm 3 mps 734 mmHg 34%
    14:00 +36°C° 0 mm 3 mps 733 mmHg 34%
    15:00 +36°C° 0 mm 4 mps 733 mmHg 35%
    16:00 +36°C° 0 mm 4 mps 733 mmHg 35%
    17:00 +35°C° 0 mm 3 mps 733 mmHg 40%
    18:00 +34°C° 0 mm 3 mps 732 mmHg 45%
    19:00 +31°C° 0 mm 2 mps 732 mmHg 50%
    20:00 +30°C° 0 mm 2 mps 732 mmHg 52%
    21:00 +29°C° 0 mm 2 mps 733 mmHg 54%
    22:00 +27°C° 0 mm 2 mps 733 mmHg 56%
    23:00 +27°C° 0 mm 2 mps 733 mmHg 59%

    Day after tomorrow, 26 July, Friday

    Time Temperature Precipitation Wind Pressure Humidity
    00:00 +26°C° 0 mm 2 mps 732 mmHg 61%
    01:00 +25°C° 0 mm 1 mps 732 mmHg 64%
    02:00 +24°C° 0 mm 1 mps 732 mmHg 66%
    03:00 +24°C° 0 mm 1 mps 732 mmHg 67%
    04:00 +24°C° 0 mm 1 mps 731 mmHg 69%
    05:00 +24°C° 0 mm 2 mps 731 mmHg 68%
    06:00 +25°C° 0 mm 2 mps 731 mmHg 66%
    07:00 +26°C° 0 mm 2 mps 731 mmHg 65%
    08:00 +27°C° 0 mm 2 mps 731 mmHg 58%
    09:00 +29°C° 0 mm 3 mps 731 mmHg 52%
    10:00 +31°C° 0 mm 3 mps 731 mmHg 45%
    11:00 +33°C° 0 mm 3 mps 731 mmHg 42%
    12:00 +34°C° 0 mm 4 mps 731 mmHg 39%
    13:00 +35°C° 0 mm 4 mps 730 mmHg 36%
    14:00 +35°C° 0 mm 4 mps 730 mmHg 35%
    15:00 +35°C° 0 mm 4 mps 729 mmHg 35%
    16:00 +35°C° 0 mm 4 mps 729 mmHg 34%
    17:00 +34°C° 0 mm 3 mps 729 mmHg 37%
    18:00 +33°C° 0 mm 3 mps 728 mmHg 40%
    19:00 +30°C° 0 mm 3 mps 728 mmHg 43%
    20:00 +29°C° 0 mm 3 mps 728 mmHg 46%
    21:00 +28°C° 0 mm 3 mps 728 mmHg 49%
    22:00 +26°C° 0 mm 4 mps 727 mmHg 53%
    23:00 +26°C° 0 mm 3 mps 727 mmHg 55%

    27 July, Saturday

    Time Temperature Precipitation Wind Pressure Humidity
    00:00 +25°C° 0 mm 3 mps 727 mmHg 57%
    01:00 +24°C° 0 mm 3 mps 727 mmHg 60%
    02:00 +22°C° 0 mm 3 mps 727 mmHg 61%
    03:00 +22°C° 0 mm 3 mps 726 mmHg 62%
    04:00 +21°C° 0 mm 3 mps 726 mmHg 63%
    05:00 +21°C° 0 mm 3 mps 726 mmHg 63%
    06:00 +22°C° 0 mm 3 mps 726 mmHg 64%
    07:00 +22°C° 0 mm 3 mps 726 mmHg 65%
    08:00 +24°C° 0 mm 3 mps 726 mmHg 61%
    09:00 +26°C° 0 mm 3 mps 726 mmHg 57%
    10:00 +27°C° 0 mm 4 mps 726 mmHg 53%
    11:00 +29°C° 0 mm 4 mps 726 mmHg 49%
    12:00 +30°C° 0 mm 4 mps 726 mmHg 45%
    13:00 +32°C° 0 mm 4 mps 725 mmHg 41%
    14:00 +32°C° 0 mm 4 mps 725 mmHg 41%
    15:00 +32°C° 0 mm 5 mps 724 mmHg 40%
    16:00 +32°C° 0 mm 5 mps 724 mmHg 40%
    17:00 +30°C° 0 mm 4 mps 724 mmHg 42%
    18:00 +29°C° 0 mm 4 mps 724 mmHg 45%
    19:00 +28°C° 0 mm 4 mps 724 mmHg 48%
    20:00 +27°C° 0.1 mm 4 mps 724 mmHg 50%
    21:00 +25°C° 0.1 mm 3 mps 724 mmHg 53%
    22:00 +24°C° 0.1 mm 3 mps 724 mmHg 56%
    23:00 +24°C° 0 mm 3 mps 724 mmHg 59%

    28 July, Sunday

    Time Temperature Precipitation Wind Pressure Humidity
    00:00 +22°C° 0 mm 3 mps 724 mmHg 62%
    01:00 +21°C° 0 mm 3 mps 725 mmHg 64%
    02:00 +20°C° 0 mm 2 mps 725 mmHg 68%
    03:00 +20°C° 0 mm 2 mps 725 mmHg 73%
    04:00 +19°C° 0 mm 2 mps 725 mmHg 77%
    05:00 +21°C° 0 mm 1 mps 725 mmHg 75%
    06:00 +21°C° 0 mm 1 mps 725 mmHg 73%
    07:00 +21°C° 0 mm 1 mps 725 mmHg 71%
    08:00 +23°C° 0 mm 1 mps 726 mmHg 66%
    09:00 +25°C° 0 mm 1 mps 726 mmHg 60%
    10:00 +26°C° 0 mm 1 mps 727 mmHg 54%
    11:00 +27°C° 0.2 mm 1 mps 727 mmHg 54%
    12:00 +27°C° 0.2 mm 2 mps 727 mmHg 55%
    13:00 +27°C° 0.2 mm 2 mps 727 mmHg 55%
    14:00 +27°C° 0.8 mm 2 mps 727 mmHg 57%
    15:00 +27°C° 0.8 mm 2 mps 727 mmHg 59%
    16:00 +27°C° 0.8 mm 3 mps 727 mmHg 62%
    17:00 +26°C° 0.3 mm 3 mps 728 mmHg 65%
    18:00 +25°C° 0.3 mm 4 mps 728 mmHg 68%
    19:00 +23°C° 0.3 mm 4 mps 728 mmHg 71%
    20:00 +22°C° 0.2 mm 4 mps 729 mmHg 74%
    21:00 +20°C° 0.2 mm 3 mps 729 mmHg 77%
    22:00 +19°C° 0.2 mm 3 mps 730 mmHg 81%
    23:00 +19°C° 0.1 mm 3 mps 730 mmHg 82%

    29 July, Monday

    Time Temperature Precipitation Wind Pressure Humidity
    00:00 +18°C° 0.1 mm 2 mps 730 mmHg 83%
    01:00 +18°C° 0.1 mm 2 mps 730 mmHg 84%
    02:00 +17°C° 0 mm 2 mps 730 mmHg 86%
    03:00 +17°C° 0 mm 2 mps 730 mmHg 87%
    04:00 +16°C° 0 mm 1 mps 731 mmHg 88%
    05:00 +18°C° 0 mm 1 mps 731 mmHg 86%
    06:00 +19°C° 0 mm 1 mps 731 mmHg 84%
    07:00 +20°C° 0 mm 1 mps 731 mmHg 81%
    08:00 +22°C° 0 mm 1 mps 732 mmHg 74%
    09:00 +24°C° 0 mm 1 mps 732 mmHg 67%
    10:00 +26°C° 0 mm 1 mps 732 mmHg 60%
    11:00 +27°C° 0 mm 2 mps 732 mmHg 56%
    12:00 +28°C° 0 mm 2 mps 732 mmHg 52%
    13:00 +29°C° 0 mm 3 mps 732 mmHg 48%
    14:00 +29°C° 0 mm 3 mps 732 mmHg 47%
    15:00 +29°C° 0 mm 2 mps 732 mmHg 46%
    16:00 +30°C° 0 mm 2 mps 732 mmHg 45%
    17:00 +29°C° 0 mm 2 mps 732 mmHg 47%
    18:00 +29°C° 0 mm 1 mps 732 mmHg 50%
    19:00 +26°C° 0 mm 0 mps 732 mmHg 52%
    20:00 +25°C° 0 mm 0 mps 732 mmHg 55%
    21:00 +23°C° 0 mm 0 mps 732 mmHg 58%
    22:00 +22°C° 0 mm 0 mps 732 mmHg 62%
    23:00 +22°C° 0 mm 0 mps 732 mmHg 63%
    Show more